Pampa, TX

2:35 AM CDT on March 28, 2017 (GMT -0500)
Perry Lefors

Weather History for KPPA - June, 2013

Change the Weather History Date:

Monday, June 10, 2013

  Actual Average Record
Temperature  
Mean Temperature 83 °F -  
Max Temperature 99 °F 82 °F 108 °F (1981)
Min Temperature 67 °F 58 °F 43 °F (1979)
Cooling Degree Days 18    
Growing Degree Days 33 (Base 50)    
Moisture  
Dew Point 52 °F    
Average Humidity 41    
Maximum Humidity 69    
Minimum Humidity 15    
Precipitation  
Precipitation 0.00 in - - ()
Sea Level Pressure  
Sea Level Pressure 29.97 in    
Wind  
Wind Speed 17 mph (SSW)    
Max Wind Speed 26 mph    
Max Gust Speed 33 mph    
Visibility 10 miles    
Events      
Averages and records for this station are not official NWS values.
T = Trace of Precipitation, MM = Missing Value Source: NWS Daily Summary

Daily Weather History Graph

Daily Weather History Graph

Search for Another Location

Airport or City:

Trip Planner

Search our weather history database for the weather conditions in past years. The results will help you decide how hot, cold, wet, or windy it might be!

Date:

Astronomy

Jun. 10, 2013 Rise Set
Actual Time 6:27 AM CDT 8:59 PM CDT
Civil Twilight 5:57 AM CDT 9:29 PM CDT
Nautical Twilight 5:20 AM CDT 10:06 PM CDT
Astronomical Twilight 4:40 AM CDT 10:47 PM CDT
Moon 8:15 AM CDT (6/10) 10:31 PM CDT (6/10)
Length of Visible Light 15h 31m
Length of Day
14h 31m
Waxing Crescent, 4% of the Moon is Illuminated
Jun 10
Waxing Crescent
Jun 16
First Quarter
Jun 23
Full
Jun 29
Last Quarter
Jul 8
New

Hourly Weather History & Observations

Time (CDT) Temp. Heat Index Dew Point Humidity Pressure Visibility Wind Dir Wind Speed Gust Speed Precip Events Conditions
12:15 AM 70.9 °F - 53.6 °F 54% 30.00 in 10.0 mi South 15.0 mph - N/A   Clear
12:35 AM 70.5 °F - 54.7 °F 57% 29.99 in 10.0 mi South 15.0 mph - N/A   Clear
12:55 AM 70.0 °F - 55.6 °F 60% 29.99 in 10.0 mi South 16.1 mph - N/A   Clear
1:15 AM 69.8 °F - 56.5 °F 63% 29.99 in 10.0 mi South 17.3 mph 21.9 mph N/A   Clear
1:35 AM 70.0 °F - 56.7 °F 63% 29.99 in 10.0 mi South 16.1 mph 23.0 mph N/A   Clear
1:55 AM 69.4 °F - 56.8 °F 64% 29.98 in 10.0 mi SSW 15.0 mph - N/A   Clear
2:15 AM 69.1 °F - 57.2 °F 66% 29.98 in 10.0 mi South 15.0 mph - N/A   Clear
2:35 AM 69.3 °F - 57.2 °F 65% 29.98 in 10.0 mi South 17.3 mph - N/A   Clear
2:55 AM 69.1 °F - 57.2 °F 66% 29.98 in 10.0 mi SSW 15.0 mph 20.7 mph N/A   Clear
3:15 AM 68.0 °F - 57.2 °F 68% 29.97 in 10.0 mi SSW 11.5 mph - N/A   Clear
3:35 AM 67.8 °F - 57.2 °F 69% 29.98 in 10.0 mi SSW 13.8 mph - N/A   Clear
3:55 AM 68.0 °F - 56.7 °F 67% 29.97 in 10.0 mi SSW 16.1 mph - N/A   Clear
4:15 AM 68.7 °F - 56.5 °F 65% 29.97 in 10.0 mi SSW 16.1 mph 20.7 mph N/A   Clear
4:35 AM 68.9 °F - 56.3 °F 64% 29.98 in 10.0 mi SSW 17.3 mph 23.0 mph N/A   Clear
4:55 AM 68.9 °F - 56.3 °F 64% 29.98 in 10.0 mi SSW 18.4 mph - N/A   Clear
5:15 AM 68.7 °F - 56.3 °F 64% 29.98 in 10.0 mi SSW 17.3 mph 23.0 mph N/A   Clear
5:35 AM 68.2 °F - 56.3 °F 66% 29.98 in 10.0 mi SSW 15.0 mph 20.7 mph N/A   Clear
5:55 AM 68.0 °F - 56.3 °F 66% 29.99 in 10.0 mi SSW 16.1 mph - N/A   Clear
6:15 AM 68.0 °F - 56.3 °F 66% 29.99 in 10.0 mi SSW 16.1 mph - N/A   Clear
6:35 AM 67.6 °F - 56.3 °F 67% 30.00 in 10.0 mi SSW 12.7 mph - N/A   Clear
6:55 AM 67.5 °F - 56.3 °F 67% 30.00 in 10.0 mi SW 12.7 mph - N/A   Clear
7:15 AM 67.6 °F - 56.5 °F 67% 30.00 in 10.0 mi WSW 12.7 mph - N/A   Clear
7:35 AM 68.9 °F - 57.2 °F 66% 30.00 in 10.0 mi WSW 12.7 mph - N/A   Clear
7:55 AM 70.7 °F - 57.2 °F 62% 30.01 in 10.0 mi WSW 16.1 mph - N/A   Clear
8:15 AM 72.1 °F - 57.4 °F 60% 30.01 in 10.0 mi SW 12.7 mph - N/A   Clear
8:35 AM 74.3 °F - 57.6 °F 56% 30.01 in 10.0 mi WSW 16.1 mph 23.0 mph N/A   Clear
8:55 AM 76.1 °F - 57.7 °F 53% 30.01 in 10.0 mi WSW 16.1 mph 31.1 mph N/A   Clear
9:15 AM 78.3 °F - 58.5 °F 50% 30.01 in 10.0 mi SW 20.7 mph 28.8 mph N/A   Clear
9:35 AM 79.5 °F - 58.8 °F 49% 30.01 in 10.0 mi WSW 23.0 mph 29.9 mph N/A   Clear
9:55 AM 81.0 °F 81.3 °F 59.2 °F 47% 30.00 in 10.0 mi SW 21.9 mph 29.9 mph N/A   Clear
10:15 AM 82.8 °F 82.7 °F 59.0 °F 44% 30.01 in 10.0 mi SW 23.0 mph 28.8 mph N/A   Clear
10:35 AM 83.8 °F 83.4 °F 58.6 °F 42% 30.01 in 10.0 mi SW 23.0 mph 33.4 mph N/A   Clear
10:55 AM 84.9 °F 84.1 °F 57.6 °F 39% 30.00 in 10.0 mi WSW 24.2 mph 31.1 mph N/A   Clear
11:15 AM 86.4 °F 85.2 °F 57.2 °F 37% 30.01 in 10.0 mi SW 26.5 mph - N/A   Clear
11:35 AM 87.3 °F 85.7 °F 55.8 °F 34% 30.00 in 10.0 mi SW 23.0 mph 31.1 mph N/A   Clear
11:55 AM 89.1 °F 87.3 °F 55.2 °F 32% 30.00 in 10.0 mi SW 25.3 mph 31.1 mph N/A   Clear
12:15 PM 90.1 °F 88.1 °F 55.0 °F 30% 30.00 in 10.0 mi SW 23.0 mph 29.9 mph N/A   Clear
12:35 PM 91.4 °F 89.1 °F 54.3 °F 28% 29.99 in 10.0 mi SW 20.7 mph 28.8 mph N/A   Clear
12:55 PM 92.5 °F 90.2 °F 54.0 °F 27% 29.99 in 10.0 mi WSW 20.7 mph 28.8 mph N/A   Clear
1:15 PM 93.4 °F - 52.5 °F 25% 29.99 in 10.0 mi SW 23.0 mph 26.5 mph N/A   Clear
1:35 PM 94.8 °F - 52.0 °F 23% 29.98 in 10.0 mi SW 24.2 mph 28.8 mph N/A   Clear
1:55 PM 95.4 °F - 51.1 °F 22% 29.97 in 10.0 mi SW 21.9 mph 27.6 mph N/A   Clear
2:15 PM 96.1 °F - 48.4 °F 20% 29.97 in 10.0 mi SW 20.7 mph 28.8 mph N/A   Clear
2:35 PM 97.0 °F - 48.0 °F 19% 29.96 in 10.0 mi SW 19.6 mph 32.2 mph N/A   Clear
2:55 PM 97.7 °F - 47.1 °F 18% 29.96 in 10.0 mi SW 20.7 mph 28.8 mph N/A   Clear
3:15 PM 97.7 °F - 47.1 °F 18% 29.95 in 10.0 mi SW 19.6 mph 27.6 mph N/A   Clear
3:35 PM 98.8 °F - 46.8 °F 17% 29.95 in 10.0 mi SSW 17.3 mph 28.8 mph N/A   Clear
3:55 PM 98.8 °F - 47.3 °F 17% 29.94 in 10.0 mi SW 19.6 mph 31.1 mph N/A   Clear
4:15 PM 99.0 °F - 46.9 °F 17% 29.93 in 10.0 mi SSW 20.7 mph 26.5 mph N/A   Clear
4:35 PM 99.5 °F - 45.7 °F 16% 29.92 in 10.0 mi SSW 19.6 mph 25.3 mph N/A   Clear
4:55 PM 97.9 °F - 46.2 °F 17% 29.92 in 10.0 mi SW 23.0 mph 28.8 mph N/A   Clear
5:15 PM 98.4 °F - 45.7 °F 17% 29.92 in 10.0 mi SSW 19.6 mph 29.9 mph N/A   Clear
5:35 PM 98.2 °F - 44.2 °F 16% 29.91 in 10.0 mi SSW 20.7 mph 27.6 mph N/A   Clear
5:55 PM 98.6 °F - 42.6 °F 15% 29.91 in 10.0 mi SSW 17.3 mph 23.0 mph N/A   Clear
6:15 PM 97.5 °F - 42.3 °F 15% 29.91 in 10.0 mi SSW 19.6 mph 27.6 mph N/A   Clear
6:35 PM 97.0 °F - 43.3 °F 16% 29.90 in 10.0 mi SSW 23.0 mph - N/A   Clear
6:55 PM 96.4 °F - 43.5 °F 16% 29.90 in 10.0 mi SSW 20.7 mph 28.8 mph N/A   Clear
7:15 PM 92.3 °F - 43.5 °F 18% 29.91 in 10.0 mi SSW 16.1 mph - N/A   Clear
7:35 PM 90.7 °F - 47.5 °F 23% 29.92 in 10.0 mi South 19.6 mph 23.0 mph N/A   Clear
7:55 PM 90.0 °F - 47.3 °F 23% 29.92 in 10.0 mi South 16.1 mph 23.0 mph N/A   Clear
8:15 PM 89.1 °F - 47.5 °F 24% 29.93 in 10.0 mi South 15.0 mph 21.9 mph N/A   Clear
8:35 PM 87.6 °F - 47.3 °F 25% 29.93 in 10.0 mi South 13.8 mph - N/A   Clear
8:55 PM 86.5 °F - 46.8 °F 25% 29.93 in 10.0 mi South 15.0 mph - N/A   Clear
9:15 PM 85.1 °F - 47.3 °F 27% 29.93 in 10.0 mi South 16.1 mph - N/A   Clear
9:35 PM 83.8 °F - 48.2 °F 29% 29.93 in 10.0 mi South 15.0 mph - N/A   Clear
9:55 PM 83.1 °F - 48.4 °F 30% 29.94 in 10.0 mi South 18.4 mph - N/A   Clear
10:15 PM 82.4 °F - 48.4 °F 30% 29.95 in 10.0 mi South 18.4 mph 26.5 mph N/A   Clear
10:35 PM 81.5 °F - 48.6 °F 32% 29.96 in 10.0 mi South 17.3 mph - N/A   Clear
10:55 PM 81.0 °F - 49.5 °F 33% 29.96 in 10.0 mi South 19.6 mph 26.5 mph N/A   Clear
11:15 PM 80.1 °F - 49.5 °F 34% 29.97 in 10.0 mi South 18.4 mph 25.3 mph N/A   Clear
11:35 PM 79.9 °F - 49.5 °F 34% 29.97 in 10.0 mi South 21.9 mph 29.9 mph N/A   Clear
11:55 PM 79.5 °F - 49.3 °F 35% 29.97 in 10.0 mi South 24.2 mph - N/A   Clear